Time,TemperatureF,DewpointF,PressureIn,WindDirection,WindDirectionDegrees,WindSpeedMPH,WindSpeedGustMPH,Humidity,HourlyPrecipIn,Conditions,Clouds,dailyrainin,SoftwareType,DateUTC
2013-04-30 00:00:00,56.0,50.9,30.02,SW,234,2.0,9.0,83,0.00,,,0.05,Wunderground v.1.15,2013-04-30 04:00:00,
2013-04-30 00:05:00,56.0,50.9,30.02,SW,219,3.0,9.0,83,0.00,,,0.05,Wunderground v.1.15,2013-04-30 04:05:00,
2013-04-30 00:10:00,56.0,50.9,30.02,SSE,166,3.0,3.0,83,0.00,,,0.05,Wunderground v.1.15,2013-04-30 04:10:00,
2013-04-30 00:15:00,55.9,51.1,30.02,SSW,213,1.0,7.0,84,0.00,,,0.05,Wunderground v.1.15,2013-04-30 04:15:00,
2013-04-30 00:20:00,55.9,51.1,30.02,SSE,167,1.0,9.0,84,0.00,,,0.05,Wunderground v.1.15,2013-04-30 04:20:00,
2013-04-30 00:30:00,55.9,51.1,30.02,SSW,195,2.0,2.0,84,0.00,,,0.05,Wunderground v.1.15,2013-04-30 04:30:00,
2013-04-30 00:35:00,56.0,51.2,30.02,SSW,210,2.0,9.0,84,0.00,,,0.05,Wunderground v.1.15,2013-04-30 04:35:00,
2013-04-30 00:40:00,56.0,51.2,30.02,SW,221,1.0,9.0,84,0.00,,,0.05,Wunderground v.1.15,2013-04-30 04:40:00,
2013-04-30 00:45:00,56.0,51.2,30.02,SW,221,2.0,9.0,84,0.00,,,0.05,Wunderground v.1.15,2013-04-30 04:45:00,
2013-04-30 00:50:00,55.9,51.1,30.02,SSW,212,3.0,3.0,84,0.00,,,0.05,Wunderground v.1.15,2013-04-30 04:50:00,
2013-04-30 00:55:00,55.9,51.1,30.02,SSW,204,2.0,9.0,84,0.00,,,0.05,Wunderground v.1.15,2013-04-30 04:55:00,
2013-04-30 01:00:00,55.9,51.5,30.02,SSW,196,2.0,2.0,85,0.00,,,0.05,Wunderground v.1.15,2013-04-30 05:00:00,
2013-04-30 01:10:00,55.8,51.4,30.02,SSE,161,2.0,2.0,85,0.00,,,0.05,Wunderground v.1.15,2013-04-30 05:10:00,
2013-04-30 01:15:00,55.8,51.4,30.02,SSW,205,2.0,9.0,85,0.00,,,0.05,Wunderground v.1.15,2013-04-30 05:15:00,
2013-04-30 01:20:00,55.8,51.4,30.03,SW,233,1.0,9.0,85,0.00,,,0.05,Wunderground v.1.15,2013-04-30 05:20:00,
2013-04-30 01:25:00,55.7,51.3,30.03,South,183,1.0,9.0,85,0.00,,,0.05,Wunderground v.1.15,2013-04-30 05:25:00,
2013-04-30 01:30:00,55.7,51.6,30.03,SE,142,1.0,1.0,86,0.00,,,0.05,Wunderground v.1.15,2013-04-30 05:30:00,
2013-04-30 01:35:00,55.7,51.6,30.03,SW,216,1.0,9.0,86,0.00,,,0.00,Wunderground v.1.15,2013-04-30 05:35:00,
2013-04-30 01:45:00,55.8,51.7,30.03,ESE,121,1.0,9.0,86,0.00,,,0.00,Wunderground v.1.15,2013-04-30 05:45:00,
2013-04-30 01:50:00,55.8,51.7,30.03,South,180,1.0,1.0,86,0.00,,,0.00,Wunderground v.1.15,2013-04-30 05:50:00,
2013-04-30 01:55:00,55.9,51.8,30.03,South,191,2.0,2.0,86,0.00,,,0.00,Wunderground v.1.15,2013-04-30 05:55:00,
2013-04-30 02:00:00,55.9,51.8,30.03,SSW,202,2.0,9.0,86,0.00,,,0.00,Wunderground v.1.15,2013-04-30 06:00:00,
2013-04-30 02:05:00,55.9,51.8,30.03,SW,223,2.0,9.0,86,0.00,,,0.00,Wunderground v.1.15,2013-04-30 06:05:00,
2013-04-30 02:10:00,55.9,51.8,30.03,SSW,192,2.0,9.0,86,0.00,,,0.00,Wunderground v.1.15,2013-04-30 06:10:00,
2013-04-30 02:20:00,56.0,52.2,30.03,SW,221,3.0,9.0,87,0.00,,,0.00,Wunderground v.1.15,2013-04-30 06:20:00,
2013-04-30 02:25:00,56.0,52.2,30.03,South,191,3.0,9.0,87,0.00,,,0.00,Wunderground v.1.15,2013-04-30 06:25:00,
2013-04-30 02:30:00,56.0,52.2,30.03,SSW,205,2.0,9.0,87,0.00,,,0.00,Wunderground v.1.15,2013-04-30 06:30:00,
2013-04-30 02:35:00,56.0,52.2,30.03,SE,141,2.0,9.0,87,0.00,,,0.00,Wunderground v.1.15,2013-04-30 06:35:00,
2013-04-30 02:40:00,56.1,52.3,30.03,SSE,154,2.0,2.0,87,0.00,,,0.00,Wunderground v.1.15,2013-04-30 06:40:00,
2013-04-30 02:45:00,56.1,52.3,30.03,SSE,162,2.0,9.0,87,0.00,,,0.00,Wunderground v.1.15,2013-04-30 06:45:00,
2013-04-30 02:50:00,56.2,52.1,30.03,South,186,2.0,2.0,86,0.00,,,0.00,Wunderground v.1.15,2013-04-30 06:50:00,
2013-04-30 03:00:00,56.2,52.1,30.03,SW,214,1.0,9.0,86,0.00,,,0.00,Wunderground v.1.15,2013-04-30 07:00:00,
2013-04-30 03:05:00,56.3,52.2,30.03,South,189,2.0,9.0,86,0.00,,,0.00,Wunderground v.1.15,2013-04-30 07:05:00,
2013-04-30 03:10:00,56.3,52.2,30.03,SW,236,2.0,9.0,86,0.00,,,0.00,Wunderground v.1.15,2013-04-30 07:10:00,
2013-04-30 03:15:00,56.4,52.3,30.04,SSW,208,2.0,9.0,86,0.00,,,0.00,Wunderground v.1.15,2013-04-30 07:15:00,
2013-04-30 03:20:00,56.4,52.3,30.03,SE,144,2.0,2.0,86,0.00,,,0.00,Wunderground v.1.15,2013-04-30 07:20:00,
2013-04-30 03:25:00,56.3,52.2,30.04,SW,224,1.0,9.0,86,0.00,,,0.00,Wunderground v.1.15,2013-04-30 07:25:00,
2013-04-30 03:30:00,56.3,52.2,30.04,SW,215,1.0,9.0,86,0.00,,,0.00,Wunderground v.1.15,2013-04-30 07:30:00,
2013-04-30 03:35:00,56.3,52.2,30.03,SSW,206,1.0,9.0,86,0.00,,,0.00,Wunderground v.1.15,2013-04-30 07:35:00,
2013-04-30 03:45:00,56.2,52.4,30.04,SSW,200,1.0,9.0,87,0.00,,,0.00,Wunderground v.1.15,2013-04-30 07:45:00,
2013-04-30 03:50:00,56.3,52.2,30.04,SSW,195,2.0,9.0,86,0.00,,,0.00,Wunderground v.1.15,2013-04-30 07:50:00,
2013-04-30 03:55:00,56.2,52.1,30.04,SSW,209,2.0,9.0,86,0.00,,,0.00,Wunderground v.1.15,2013-04-30 07:55:00,
2013-04-30 04:00:00,56.3,52.2,30.04,SSW,205,3.0,9.0,86,0.00,,,0.00,Wunderground v.1.15,2013-04-30 08:00:00,
2013-04-30 04:05:00,56.6,52.5,30.04,SSW,198,5.0,9.0,86,0.00,,,0.00,Wunderground v.1.15,2013-04-30 08:05:00,
2013-04-30 04:15:00,56.7,52.2,30.05,SW,230,5.0,9.0,85,0.00,,,0.00,Wunderground v.1.15,2013-04-30 08:15:00,
2013-04-30 04:20:00,56.8,52.3,30.05,SSE,159,4.0,9.0,85,0.00,,,0.00,Wunderground v.1.15,2013-04-30 08:20:00,
2013-04-30 04:25:00,56.7,52.2,30.05,SSW,206,3.0,9.0,85,0.00,,,0.00,Wunderground v.1.15,2013-04-30 08:25:00,
2013-04-30 04:30:00,56.6,52.5,30.05,SW,225,2.0,9.0,86,0.00,,,0.00,Wunderground v.1.15,2013-04-30 08:30:00,
2013-04-30 04:35:00,56.5,52.4,30.05,SW,215,3.0,9.0,86,0.00,,,0.00,Wunderground v.1.15,2013-04-30 08:35:00,
2013-04-30 04:40:00,56.6,52.5,30.05,SW,226,4.0,4.0,86,0.00,,,0.00,Wunderground v.1.15,2013-04-30 08:40:00,
2013-04-30 04:45:00,56.5,52.4,30.05,SSW,213,4.0,9.0,86,0.00,,,0.00,Wunderground v.1.15,2013-04-30 08:45:00,
2013-04-30 04:50:00,56.4,51.9,30.05,SSW,198,3.0,3.0,85,0.00,,,0.00,Wunderground v.1.15,2013-04-30 08:50:00,
2013-04-30 05:00:00,56.3,52.2,30.05,SSW,207,1.0,1.0,86,0.00,,,0.00,Wunderground v.1.15,2013-04-30 09:00:00,
2013-04-30 05:05:00,56.3,52.2,30.06,SSW,198,2.0,2.0,86,0.00,,,0.00,Wunderground v.1.15,2013-04-30 09:05:00,
2013-04-30 05:10:00,56.3,52.2,30.06,SW,217,2.0,2.0,86,0.00,,,0.00,Wunderground v.1.15,2013-04-30 09:10:00,
2013-04-30 05:15:00,56.3,52.2,30.06,SSW,200,1.0,5.0,86,0.00,,,0.00,Wunderground v.1.15,2013-04-30 09:15:00,
2013-04-30 05:20:00,56.4,52.3,30.06,SSW,208,2.0,9.0,86,0.00,,,0.00,Wunderground v.1.15,2013-04-30 09:20:00,
2013-04-30 05:25:00,56.6,52.5,30.06,South,188,4.0,9.0,86,0.00,,,0.00,Wunderground v.1.15,2013-04-30 09:25:00,
2013-04-30 05:30:00,56.6,52.5,30.07,South,180,4.0,4.0,86,0.00,,,0.00,Wunderground v.1.15,2013-04-30 09:30:00,
2013-04-30 05:40:00,56.6,52.5,30.07,SSW,209,2.0,9.0,86,0.00,,,0.00,Wunderground v.1.15,2013-04-30 09:40:00,
2013-04-30 05:45:00,56.6,52.5,30.07,SSW,210,1.0,9.0,86,0.00,,,0.00,Wunderground v.1.15,2013-04-30 09:45:00,
2013-04-30 05:50:00,56.5,52.4,30.07,SSE,154,1.0,1.0,86,0.00,,,0.00,Wunderground v.1.15,2013-04-30 09:50:00,
2013-04-30 05:55:00,56.4,52.3,30.07,SSE,166,1.0,9.0,86,0.00,,,0.00,Wunderground v.1.15,2013-04-30 09:55:00,
2013-04-30 06:00:00,56.3,52.2,30.07,South,190,1.0,1.0,86,0.00,,,0.00,Wunderground v.1.15,2013-04-30 10:00:00,
2013-04-30 06:05:00,56.3,52.5,30.07,SSW,192,2.0,2.0,87,0.00,,,0.00,Wunderground v.1.15,2013-04-30 10:05:00,
2013-04-30 06:15:00,56.3,52.5,30.07,South,183,2.0,9.0,87,0.00,,,0.00,Wunderground v.1.15,2013-04-30 10:15:00,
2013-04-30 06:20:00,56.2,52.1,30.07,SSE,167,2.0,2.0,86,0.00,,,0.00,Wunderground v.1.15,2013-04-30 10:20:00,
2013-04-30 06:25:00,56.2,52.1,30.07,SSW,206,2.0,5.0,86,0.00,,,0.00,Wunderground v.1.15,2013-04-30 10:25:00,
2013-04-30 06:30:00,56.1,52.0,30.08,SSW,210,3.0,3.0,86,0.00,,,0.00,Wunderground v.1.15,2013-04-30 10:30:00,
2013-04-30 06:35:00,56.1,52.0,30.08,SW,235,3.0,9.0,86,0.00,,,0.00,Wunderground v.1.15,2013-04-30 10:35:00,
2013-04-30 06:40:00,56.1,52.0,30.08,SE,130,3.0,9.0,86,0.00,,,0.00,Wunderground v.1.15,2013-04-30 10:40:00,
2013-04-30 06:45:00,56.1,52.0,30.08,SW,218,2.0,9.0,86,0.00,,,0.00,Wunderground v.1.15,2013-04-30 10:45:00,
2013-04-30 06:55:00,56.2,52.1,30.09,SSE,157,1.0,9.0,86,0.00,,,0.00,Wunderground v.1.15,2013-04-30 10:55:00,
2013-04-30 07:00:00,56.2,52.1,30.09,SE,132,1.0,1.0,86,0.00,,,0.00,Wunderground v.1.15,2013-04-30 11:00:00,
2013-04-30 07:05:00,56.2,52.1,30.09,SSE,154,1.0,2.0,86,0.00,,,0.00,Wunderground v.1.15,2013-04-30 11:05:00,
2013-04-30 07:10:00,56.3,52.2,30.09,South,169,1.0,1.0,86,0.00,,,0.00,Wunderground v.1.15,2013-04-30 11:10:00,
2013-04-30 07:15:00,56.3,51.8,30.09,SSW,205,2.0,2.0,85,0.00,,,0.00,Wunderground v.1.15,2013-04-30 11:15:00,
2013-04-30 07:20:00,56.4,51.9,30.09,SW,222,3.0,3.0,85,0.00,,,0.00,Wunderground v.1.15,2013-04-30 11:20:00,
2013-04-30 07:25:00,56.5,52.0,30.09,SSW,200,4.0,6.0,85,0.00,,,0.00,Wunderground v.1.15,2013-04-30 11:25:00,
2013-04-30 07:35:00,56.7,51.9,30.10,SSE,158,6.0,9.0,84,0.00,,,0.00,Wunderground v.1.15,2013-04-30 11:35:00,
2013-04-30 07:40:00,56.8,51.7,30.10,West,270,7.0,9.0,83,0.00,,,0.00,Wunderground v.1.15,2013-04-30 11:40:00,
2013-04-30 07:45:00,56.8,51.7,30.10,SSW,203,6.0,9.0,83,0.00,,,0.00,Wunderground v.1.15,2013-04-30 11:45:00,
2013-04-30 07:50:00,57.0,51.6,30.10,SW,223,7.0,9.0,82,0.00,,,0.00,Wunderground v.1.15,2013-04-30 11:50:00,
2013-04-30 07:55:00,57.2,51.8,30.10,SSW,205,9.0,9.0,82,0.00,,,0.00,Wunderground v.1.15,2013-04-30 11:55:00,
2013-04-30 08:00:00,57.4,51.9,30.10,SSW,212,8.0,8.0,82,0.00,,,0.00,Wunderground v.1.15,2013-04-30 12:00:00,
2013-04-30 08:10:00,57.5,51.7,30.10,SW,217,8.0,16.0,81,0.00,,,0.00,Wunderground v.1.15,2013-04-30 12:10:00,
2013-04-30 08:15:00,57.6,51.8,30.10,SSW,210,9.0,16.0,81,0.00,,,0.00,Wunderground v.1.15,2013-04-30 12:15:00,
2013-04-30 08:20:00,57.6,51.5,30.10,SSW,203,11.0,14.0,80,0.00,,,0.00,Wunderground v.1.15,2013-04-30 12:20:00,
2013-04-30 08:25:00,57.7,51.6,30.10,SSW,207,11.0,14.0,80,0.00,,,0.00,Wunderground v.1.15,2013-04-30 12:25:00,
2013-04-30 08:30:00,57.7,51.6,30.10,SSW,198,9.0,13.0,80,0.00,,,0.00,Wunderground v.1.15,2013-04-30 12:30:00,
2013-04-30 08:35:00,57.7,51.6,30.10,South,179,8.0,13.0,80,0.00,,,0.00,Wunderground v.1.15,2013-04-30 12:35:00,
2013-04-30 08:40:00,57.7,51.6,30.10,SW,224,7.0,9.0,80,0.00,,,0.00,Wunderground v.1.15,2013-04-30 12:40:00,
2013-04-30 08:50:00,58.1,51.6,30.11,SW,229,6.0,9.0,79,0.00,,,0.00,Wunderground v.1.15,2013-04-30 12:50:00,
2013-04-30 08:55:00,58.7,51.9,30.11,WSW,238,6.0,13.0,78,0.00,,,0.00,Wunderground v.1.15,2013-04-30 12:55:00,
2013-04-30 09:00:00,58.9,51.7,30.11,SW,230,8.0,11.0,77,0.00,,,0.00,Wunderground v.1.15,2013-04-30 13:00:00,
2013-04-30 09:05:00,59.4,52.2,30.10,SSW,207,10.0,11.0,77,0.00,,,0.00,Wunderground v.1.15,2013-04-30 13:05:00,
2013-04-30 09:10:00,59.8,51.9,30.11,South,188,10.0,10.0,75,0.00,,,0.00,Wunderground v.1.15,2013-04-30 13:10:00,
2013-04-30 09:15:00,60.0,52.4,30.11,SW,223,9.0,10.0,76,0.00,,,0.00,Wunderground v.1.15,2013-04-30 13:15:00,
2013-04-30 09:25:00,60.2,52.2,30.11,SW,225,10.0,11.0,75,0.00,,,0.00,Wunderground v.1.15,2013-04-30 13:25:00,
2013-04-30 09:30:00,60.0,52.1,30.10,SW,221,11.0,11.0,75,0.00,,,0.00,Wunderground v.1.15,2013-04-30 13:30:00,
2013-04-30 09:35:00,60.3,52.3,30.11,SSW,212,11.0,12.0,75,0.00,,,0.00,Wunderground v.1.15,2013-04-30 13:35:00,
2013-04-30 09:40:00,60.1,52.5,30.11,SSW,213,10.0,10.0,76,0.00,,,0.00,Wunderground v.1.15,2013-04-30 13:40:00,
2013-04-30 09:45:00,60.5,52.5,30.11,South,186,10.0,10.0,75,0.00,,,0.00,Wunderground v.1.15,2013-04-30 13:45:00,
2013-04-30 09:50:00,60.6,52.6,30.11,SSW,198,10.0,11.0,75,0.00,,,0.00,Wunderground v.1.15,2013-04-30 13:50:00,
2013-04-30 10:00:00,61.2,52.8,30.11,SW,217,9.0,9.0,74,0.00,,,0.00,Wunderground v.1.15,2013-04-30 14:00:00,
2013-04-30 10:05:00,61.7,53.3,30.11,SSW,209,7.0,9.0,74,0.00,,,0.00,Wunderground v.1.15,2013-04-30 14:05:00,
2013-04-30 10:10:00,62.2,53.4,30.11,SE,124,6.0,11.0,73,0.00,,,0.00,Wunderground v.1.15,2013-04-30 14:10:00,
2013-04-30 10:15:00,62.5,53.3,30.11,SW,227,6.0,11.0,72,0.00,,,0.00,Wunderground v.1.15,2013-04-30 14:15:00,
2013-04-30 10:20:00,62.0,52.9,30.11,SW,221,8.0,13.0,72,0.00,,,0.00,Wunderground v.1.15,2013-04-30 14:20:00,
2013-04-30 10:25:00,61.4,52.7,30.11,SW,227,11.0,13.0,73,0.00,,,0.00,Wunderground v.1.15,2013-04-30 14:25:00,
2013-04-30 10:30:00,61.9,53.1,30.11,West,275,10.0,10.0,73,0.00,,,0.00,Wunderground v.1.15,2013-04-30 14:30:00,
2013-04-30 10:35:00,62.2,53.1,30.12,SE,133,8.0,10.0,72,0.00,,,0.00,Wunderground v.1.15,2013-04-30 14:35:00,
2013-04-30 10:45:00,62.4,53.6,30.11,South,191,8.0,9.0,73,0.00,,,0.00,Wunderground v.1.15,2013-04-30 14:45:00,
2013-04-30 10:50:00,63.1,53.5,30.11,SSW,213,7.0,10.0,71,0.00,,,0.00,Wunderground v.1.15,2013-04-30 14:50:00,
2013-04-30 10:55:00,63.6,53.6,30.12,SW,227,7.0,10.0,70,0.00,,,0.00,Wunderground v.1.15,2013-04-30 14:55:00,
2013-04-30 11:00:00,63.5,52.7,30.12,WSW,246,7.0,9.0,68,0.00,,,0.00,Wunderground v.1.15,2013-04-30 15:00:00,
2013-04-30 11:05:00,63.1,52.8,30.12,South,184,10.0,10.0,69,0.00,,,0.00,Wunderground v.1.15,2013-04-30 15:05:00,
2013-04-30 11:10:00,63.5,53.9,30.12,SW,226,10.0,10.0,71,0.00,,,0.00,Wunderground v.1.15,2013-04-30 15:10:00,
2013-04-30 11:15:00,64.0,53.2,30.12,SW,217,8.0,15.0,68,0.00,,,0.00,Wunderground v.1.15,2013-04-30 15:15:00,
2013-04-30 11:25:00,64.1,53.3,30.12,SW,227,9.0,9.0,68,0.00,,,0.00,Wunderground v.1.15,2013-04-30 15:25:00,
2013-04-30 11:30:00,64.0,52.8,30.12,SSW,209,7.0,16.0,67,0.00,,,0.00,Wunderground v.1.15,2013-04-30 15:30:00,
2013-04-30 11:35:00,63.7,52.5,30.12,SSW,213,9.0,16.0,67,0.00,,,0.00,Wunderground v.1.15,2013-04-30 15:35:00,
2013-04-30 11:40:00,64.3,53.5,30.12,SSE,148,9.0,9.0,68,0.00,,,0.00,Wunderground v.1.15,2013-04-30 15:40:00,
2013-04-30 11:45:00,65.0,52.9,30.12,South,187,8.0,9.0,65,0.00,,,0.00,Wunderground v.1.15,2013-04-30 15:45:00,
2013-04-30 11:50:00,65.0,52.5,30.12,SSW,195,9.0,15.0,64,0.00,,,0.00,Wunderground v.1.15,2013-04-30 15:50:00,
2013-04-30 12:00:00,64.9,52.8,30.12,South,180,10.0,10.0,65,0.00,,,0.00,Wunderground v.1.15,2013-04-30 16:00:00,
2013-04-30 12:05:00,65.2,53.6,30.12,SE,145,7.0,10.0,66,0.00,,,0.00,Wunderground v.1.15,2013-04-30 16:05:00,
2013-04-30 12:10:00,65.3,53.2,30.12,SSW,202,6.0,6.0,65,0.00,,,0.00,Wunderground v.1.15,2013-04-30 16:10:00,
2013-04-30 12:15:00,65.5,53.8,30.12,SSW,211,6.0,9.0,66,0.00,,,0.00,Wunderground v.1.15,2013-04-30 16:15:00,
2013-04-30 12:20:00,65.7,54.0,30.12,South,190,6.0,6.0,66,0.00,,,0.00,Wunderground v.1.15,2013-04-30 16:20:00,
2013-04-30 12:25:00,65.5,52.6,30.12,WSW,248,6.0,9.0,63,0.00,,,0.00,Wunderground v.1.15,2013-04-30 16:25:00,
2013-04-30 12:35:00,65.6,52.7,30.13,SW,216,6.0,9.0,63,0.00,,,0.00,Wunderground v.1.15,2013-04-30 16:35:00,
2013-04-30 12:40:00,65.2,52.7,30.13,SSW,210,8.0,9.0,64,0.00,,,0.00,Wunderground v.1.15,2013-04-30 16:40:00,
2013-04-30 12:45:00,65.3,52.8,30.13,SSW,196,8.0,9.0,64,0.00,,,0.00,Wunderground v.1.15,2013-04-30 16:45:00,
2013-04-30 12:50:00,65.3,52.8,30.13,SW,220,9.0,9.0,64,0.00,,,0.00,Wunderground v.1.15,2013-04-30 16:50:00,
2013-04-30 12:55:00,65.4,52.5,30.13,SW,221,9.0,9.0,63,0.00,,,0.00,Wunderground v.1.15,2013-04-30 16:55:00,
2013-04-30 13:00:00,65.8,52.9,30.13,SSW,209,8.0,8.0,63,0.00,,,0.00,Wunderground v.1.15,2013-04-30 17:00:00,
2013-04-30 13:10:00,66.7,53.7,30.13,SSW,196,8.0,8.0,63,0.00,,,0.00,Wunderground v.1.15,2013-04-30 17:10:00,
2013-04-30 13:15:00,67.2,52.4,30.13,SSW,196,8.0,15.0,59,0.00,,,0.00,Wunderground v.1.15,2013-04-30 17:15:00,
2013-04-30 13:20:00,67.3,52.5,30.13,SSW,200,8.0,8.0,59,0.00,,,0.00,Wunderground v.1.15,2013-04-30 17:20:00,
2013-04-30 13:25:00,67.6,54.1,30.13,SSW,201,7.0,9.0,62,0.00,,,0.00,Wunderground v.1.15,2013-04-30 17:25:00,
2013-04-30 13:30:00,67.6,54.1,30.12,SW,229,6.0,15.0,62,0.00,,,0.00,Wunderground v.1.15,2013-04-30 17:30:00,
2013-04-30 13:35:00,67.1,52.3,30.13,SSW,211,8.0,15.0,59,0.00,,,0.00,Wunderground v.1.15,2013-04-30 17:35:00,
2013-04-30 13:40:00,66.9,53.0,30.12,SW,226,8.0,9.0,61,0.00,,,0.00,Wunderground v.1.15,2013-04-30 17:40:00,
2013-04-30 13:50:00,67.3,53.4,30.13,ESE,111,7.0,7.0,61,0.00,,,0.00,Wunderground v.1.15,2013-04-30 17:50:00,
2013-04-30 13:55:00,67.4,53.0,30.13,SW,227,6.0,9.0,60,0.00,,,0.00,Wunderground v.1.15,2013-04-30 17:55:00,
2013-04-30 14:00:00,66.9,53.9,30.13,WSW,240,6.0,6.0,63,0.00,,,0.00,Wunderground v.1.15,2013-04-30 18:00:00,
2013-04-30 14:05:00,67.5,53.6,30.13,East,81,5.0,13.0,61,0.00,,,0.00,Wunderground v.1.15,2013-04-30 18:05:00,
2013-04-30 14:10:00,67.9,53.5,30.13,South,190,6.0,10.0,60,0.00,,,0.00,Wunderground v.1.15,2013-04-30 18:10:00,
2013-04-30 14:15:00,68.2,53.8,30.13,East,82,6.0,10.0,60,0.00,,,0.00,Wunderground v.1.15,2013-04-30 18:15:00,
2013-04-30 14:20:00,68.6,54.2,30.13,SW,215,6.0,10.0,60,0.00,,,0.00,Wunderground v.1.15,2013-04-30 18:20:00,
2013-04-30 14:30:00,68.4,54.4,30.14,SE,133,4.0,4.0,61,0.00,,,0.00,Wunderground v.1.15,2013-04-30 18:30:00,
2013-04-30 14:35:00,68.5,53.1,30.14,West,259,5.0,5.0,58,0.00,,,0.00,Wunderground v.1.15,2013-04-30 18:35:00,
2013-04-30 14:40:00,68.3,53.9,30.14,SW,227,6.0,9.0,60,0.00,,,0.00,Wunderground v.1.15,2013-04-30 18:40:00,
2013-04-30 14:45:00,67.7,53.3,30.14,ESE,117,7.0,9.0,60,0.00,,,0.00,Wunderground v.1.15,2013-04-30 18:45:00,
2013-04-30 14:50:00,68.3,53.9,30.14,SE,137,7.0,7.0,60,0.00,,,0.00,Wunderground v.1.15,2013-04-30 18:50:00,
2013-04-30 14:55:00,68.7,53.8,30.14,SSE,167,5.0,9.0,59,0.00,,,0.00,Wunderground v.1.15,2013-04-30 18:55:00,
2013-04-30 15:05:00,68.2,53.3,30.14,SE,126,4.0,9.0,59,0.00,,,0.00,Wunderground v.1.15,2013-04-30 19:05:00,
2013-04-30 15:10:00,68.0,54.0,30.14,SW,223,5.0,9.0,61,0.00,,,0.00,Wunderground v.1.15,2013-04-30 19:10:00,
2013-04-30 15:15:00,68.4,54.0,30.14,SSE,168,5.0,9.0,60,0.00,,,0.00,Wunderground v.1.15,2013-04-30 19:15:00,
2013-04-30 15:20:00,68.6,54.2,30.13,SW,221,5.0,5.0,60,0.00,,,0.00,Wunderground v.1.15,2013-04-30 19:20:00,
2013-04-30 15:25:00,68.8,54.3,30.13,SE,140,5.0,8.0,60,0.00,,,0.00,Wunderground v.1.15,2013-04-30 19:25:00,
2013-04-30 15:30:00,69.1,54.2,30.13,SSW,212,5.0,5.0,59,0.00,,,0.00,Wunderground v.1.15,2013-04-30 19:30:00,
2013-04-30 15:35:00,69.3,53.4,30.13,SSW,202,5.0,8.0,57,0.00,,,0.00,Wunderground v.1.15,2013-04-30 19:35:00,
2013-04-30 15:45:00,68.9,53.5,30.13,SW,232,7.0,14.0,58,0.00,,,0.00,Wunderground v.1.15,2013-04-30 19:45:00,
2013-04-30 15:50:00,69.4,54.9,30.13,SE,128,6.0,9.0,60,0.00,,,0.00,Wunderground v.1.15,2013-04-30 19:50:00,
2013-04-30 15:55:00,69.8,54.4,30.13,WSW,242,5.0,9.0,58,0.00,,,0.00,Wunderground v.1.15,2013-04-30 19:55:00,
2013-04-30 16:00:00,69.8,53.9,30.12,SW,219,6.0,13.0,57,0.00,,,0.00,Wunderground v.1.15,2013-04-30 20:00:00,
2013-04-30 16:05:00,69.8,53.4,30.12,SSW,193,6.0,13.0,56,0.00,,,0.00,Wunderground v.1.15,2013-04-30 20:05:00,
2013-04-30 16:10:00,70.0,53.6,30.12,South,182,5.0,5.0,56,0.00,,,0.00,Wunderground v.1.15,2013-04-30 20:10:00,
2013-04-30 16:15:00,70.5,54.5,30.12,SSW,194,4.0,6.0,57,0.00,,,0.00,Wunderground v.1.15,2013-04-30 20:15:00,
2013-04-30 16:20:00,70.5,53.6,30.12,SW,236,4.0,4.0,55,0.00,,,0.00,Wunderground v.1.15,2013-04-30 20:20:00,
2013-04-30 16:30:00,70.0,53.6,30.11,SW,217,4.0,9.0,56,0.00,,,0.00,Wunderground v.1.15,2013-04-30 20:30:00,
2013-04-30 16:35:00,69.9,53.5,30.12,SE,142,5.0,9.0,56,0.00,,,0.00,Wunderground v.1.15,2013-04-30 20:35:00,
2013-04-30 16:40:00,69.8,54.4,30.12,SSE,152,4.0,4.0,58,0.00,,,0.00,Wunderground v.1.15,2013-04-30 20:40:00,
2013-04-30 16:45:00,70.2,54.2,30.11,SSE,155,4.0,9.0,57,0.00,,,0.00,Wunderground v.1.15,2013-04-30 20:45:00,
2013-04-30 16:50:00,70.4,53.5,30.11,SE,130,4.0,4.0,55,0.00,,,0.00,Wunderground v.1.15,2013-04-30 20:50:00,
2013-04-30 16:55:00,70.5,53.6,30.11,SE,131,6.0,6.0,55,0.00,,,0.00,Wunderground v.1.15,2013-04-30 20:55:00,
2013-04-30 17:00:00,70.7,54.2,30.11,SSE,148,7.0,9.0,56,0.00,,,0.00,Wunderground v.1.15,2013-04-30 21:00:00,
2013-04-30 17:10:00,70.3,52.9,30.10,South,184,7.0,7.0,54,0.00,,,0.00,Wunderground v.1.15,2013-04-30 21:10:00,
2013-04-30 17:15:00,70.4,53.0,30.10,ESE,120,7.0,12.0,54,0.00,,,0.00,Wunderground v.1.15,2013-04-30 21:15:00,
2013-04-30 17:20:00,70.4,53.5,30.09,ESE,117,7.0,9.0,55,0.00,,,0.00,Wunderground v.1.15,2013-04-30 21:20:00,
2013-04-30 17:25:00,69.9,53.5,30.09,SSE,151,7.0,9.0,56,0.00,,,0.00,Wunderground v.1.15,2013-04-30 21:25:00,
2013-04-30 17:30:00,69.4,53.0,30.10,SSW,212,6.0,11.0,56,0.00,,,0.00,Wunderground v.1.15,2013-04-30 21:30:00,
2013-04-30 17:35:00,69.5,53.6,30.10,SW,216,5.0,11.0,57,0.00,,,0.00,Wunderground v.1.15,2013-04-30 21:35:00,
2013-04-30 17:45:00,69.3,53.4,30.10,SSW,211,6.0,9.0,57,0.00,,,0.00,Wunderground v.1.15,2013-04-30 21:45:00,
2013-04-30 17:50:00,68.8,52.9,30.10,SW,225,6.0,6.0,57,0.00,,,0.00,Wunderground v.1.15,2013-04-30 21:50:00,
2013-04-30 17:55:00,68.5,52.7,30.10,ESE,112,6.0,9.0,57,0.00,,,0.00,Wunderground v.1.15,2013-04-30 21:55:00,
2013-04-30 18:00:00,68.5,52.7,30.09,SE,142,5.0,9.0,57,0.00,,,0.00,Wunderground v.1.15,2013-04-30 22:00:00,
2013-04-30 18:05:00,68.6,52.8,30.09,SSW,194,5.0,9.0,57,0.00,,,0.00,Wunderground v.1.15,2013-04-30 22:05:00,
2013-04-30 18:10:00,68.2,52.9,30.09,SSE,164,4.0,9.0,58,0.00,,,0.00,Wunderground v.1.15,2013-04-30 22:10:00,
2013-04-30 18:15:00,67.8,52.9,30.09,SSW,200,3.0,9.0,59,0.00,,,0.00,Wunderground v.1.15,2013-04-30 22:15:00,
2013-04-30 18:25:00,67.1,52.7,30.09,SSW,202,3.0,9.0,60,0.00,,,0.00,Wunderground v.1.15,2013-04-30 22:25:00,
2013-04-30 18:30:00,66.8,52.5,30.10,SW,215,2.0,9.0,60,0.00,,,0.00,Wunderground v.1.15,2013-04-30 22:30:00,
2013-04-30 18:35:00,66.6,52.7,30.09,SW,218,2.0,9.0,61,0.00,,,0.00,Wunderground v.1.15,2013-04-30 22:35:00,
2013-04-30 18:40:00,66.4,52.5,30.09,ESE,123,3.0,9.0,61,0.00,,,0.00,Wunderground v.1.15,2013-04-30 22:40:00,
2013-04-30 18:45:00,66.3,52.9,30.10,SE,138,3.0,9.0,62,0.00,,,0.00,Wunderground v.1.15,2013-04-30 22:45:00,
2013-04-30 18:50:00,66.3,52.9,30.10,SSE,165,3.0,3.0,62,0.00,,,0.00,Wunderground v.1.15,2013-04-30 22:50:00,
2013-04-30 19:00:00,66.5,52.6,30.09,ESE,120,3.0,9.0,61,0.00,,,0.00,Wunderground v.1.15,2013-04-30 23:00:00,
2013-04-30 19:05:00,66.2,52.3,30.09,SSE,159,5.0,13.0,61,0.00,,,0.00,Wunderground v.1.15,2013-04-30 23:05:00,
2013-04-30 19:10:00,66.0,52.6,30.09,SE,128,6.0,9.0,62,0.00,,,0.00,Wunderground v.1.15,2013-04-30 23:10:00,
2013-04-30 19:15:00,65.8,52.4,30.10,SSE,150,6.0,9.0,62,0.00,,,0.00,Wunderground v.1.15,2013-04-30 23:15:00,
2013-04-30 19:20:00,65.3,52.4,30.09,ESE,123,8.0,9.0,63,0.00,,,0.00,Wunderground v.1.15,2013-04-30 23:20:00,
2013-04-30 19:25:00,64.9,52.0,30.09,South,180,9.0,9.0,63,0.00,,,0.00,Wunderground v.1.15,2013-04-30 23:25:00,
2013-04-30 19:30:00,64.6,52.1,30.09,SSE,167,8.0,9.0,64,0.00,,,0.00,Wunderground v.1.15,2013-04-30 23:30:00,
2013-04-30 19:40:00,64.0,51.1,30.08,ESE,122,10.0,10.0,63,0.00,,,0.00,Wunderground v.1.15,2013-04-30 23:40:00,
2013-04-30 19:45:00,63.7,51.3,30.08,SSE,156,10.0,11.0,64,0.00,,,0.00,Wunderground v.1.15,2013-04-30 23:45:00,
2013-04-30 19:50:00,63.5,51.1,30.08,ESE,123,10.0,10.0,64,0.00,,,0.00,Wunderground v.1.15,2013-04-30 23:50:00,
2013-04-30 19:55:00,63.3,50.9,30.08,SE,134,10.0,10.0,64,0.00,,,0.00,Wunderground v.1.15,2013-04-30 23:55:00,
2013-04-30 20:00:00,63.0,51.0,30.09,SSW,205,9.0,9.0,65,0.00,,,0.00,Wunderground v.1.15,2013-05-01 00:00:00,
2013-04-30 20:05:00,62.7,51.2,30.10,SSW,204,6.0,9.0,66,0.00,,,0.00,Wunderground v.1.15,2013-05-01 00:05:00,
2013-04-30 20:15:00,62.1,50.6,30.11,South,170,5.0,9.0,66,0.00,,,0.00,Wunderground v.1.15,2013-05-01 00:15:00,
2013-04-30 20:20:00,62.0,50.9,30.11,SSW,197,5.0,5.0,67,0.00,,,0.00,Wunderground v.1.15,2013-05-01 00:20:00,
2013-04-30 20:25:00,61.8,50.7,30.12,South,188,4.0,9.0,67,0.00,,,0.00,Wunderground v.1.15,2013-05-01 00:25:00,
2013-04-30 20:30:00,61.6,50.9,30.12,SW,219,3.0,3.0,68,0.00,,,0.00,Wunderground v.1.15,2013-05-01 00:30:00,
2013-04-30 20:35:00,61.4,50.7,30.13,SW,221,3.0,6.0,68,0.00,,,0.00,Wunderground v.1.15,2013-05-01 00:35:00,
2013-04-30 20:40:00,61.3,50.6,30.13,SE,144,3.0,3.0,68,0.00,,,0.00,Wunderground v.1.15,2013-05-01 00:40:00,
2013-04-30 20:50:00,61.0,50.4,30.13,SSW,198,3.0,3.0,68,0.00,,,0.00,Wunderground v.1.15,2013-05-01 00:50:00,
2013-04-30 20:55:00,60.8,50.6,30.13,SSE,148,3.0,7.0,69,0.00,,,0.00,Wunderground v.1.15,2013-05-01 00:55:00,
2013-04-30 21:00:00,60.8,50.6,30.13,SSW,206,3.0,3.0,69,0.00,,,0.00,Wunderground v.1.15,2013-05-01 01:00:00,
2013-04-30 21:05:00,60.5,50.3,30.14,SSW,212,3.0,9.0,69,0.00,,,0.00,Wunderground v.1.15,2013-05-01 01:05:00,
2013-04-30 21:10:00,60.4,50.6,30.14,ESE,120,2.0,2.0,70,0.00,,,0.00,Wunderground v.1.15,2013-05-01 01:10:00,
2013-04-30 21:15:00,60.2,50.4,30.14,SE,130,1.0,9.0,70,0.00,,,0.00,Wunderground v.1.15,2013-05-01 01:15:00,
2013-04-30 21:20:00,60.1,50.3,30.14,SSW,200,1.0,1.0,70,0.00,,,0.00,Wunderground v.1.15,2013-05-01 01:20:00,
2013-04-30 21:30:00,59.8,50.4,30.15,SSW,198,1.0,9.0,71,0.00,,,0.00,Wunderground v.1.15,2013-05-01 01:30:00,
2013-04-30 21:35:00,59.7,50.3,30.15,South,188,1.0,9.0,71,0.00,,,0.00,Wunderground v.1.15,2013-05-01 01:35:00,
2013-04-30 21:40:00,59.6,50.6,30.15,SE,131,1.0,9.0,72,0.00,,,0.00,Wunderground v.1.15,2013-05-01 01:40:00,
2013-04-30 21:45:00,59.5,50.5,30.15,SSW,195,1.0,9.0,72,0.00,,,0.00,Wunderground v.1.15,2013-05-01 01:45:00,
2013-04-30 21:50:00,59.4,50.4,30.15,South,179,1.0,1.0,72,0.00,,,0.00,Wunderground v.1.15,2013-05-01 01:50:00,
2013-04-30 21:55:00,59.3,50.3,30.15,SSW,211,1.0,9.0,72,0.00,,,0.00,Wunderground v.1.15,2013-05-01 01:55:00,
2013-04-30 22:00:00,59.3,50.6,30.15,SW,235,2.0,9.0,73,0.00,,,0.00,Wunderground v.1.15,2013-05-01 02:00:00,
2013-04-30 22:10:00,59.3,50.6,30.16,SE,130,1.0,9.0,73,0.00,,,0.00,Wunderground v.1.15,2013-05-01 02:10:00,
2013-04-30 22:15:00,59.3,50.6,30.15,South,182,1.0,9.0,73,0.00,,,0.00,Wunderground v.1.15,2013-05-01 02:15:00,
2013-04-30 22:20:00,59.3,50.6,30.16,ESE,109,2.0,9.0,73,0.00,,,0.00,Wunderground v.1.15,2013-05-01 02:20:00,
2013-04-30 22:25:00,59.3,50.6,30.15,SSW,205,2.0,9.0,73,0.00,,,0.00,Wunderground v.1.15,2013-05-01 02:25:00,
2013-04-30 22:30:00,59.3,50.6,30.16,SSW,213,2.0,2.0,73,0.00,,,0.00,Wunderground v.1.15,2013-05-01 02:30:00,
2013-04-30 22:40:00,59.1,50.5,30.17,SE,133,2.0,9.0,73,0.00,,,0.00,Wunderground v.1.15,2013-05-01 02:40:00,
2013-04-30 22:45:00,59.2,50.9,30.17,SW,234,3.0,9.0,74,0.00,,,0.00,Wunderground v.1.15,2013-05-01 02:45:00,
2013-04-30 22:50:00,59.3,50.6,30.17,South,175,3.0,3.0,73,0.00,,,0.00,Wunderground v.1.15,2013-05-01 02:50:00,
2013-04-30 22:55:00,59.3,50.6,30.17,SW,221,2.0,9.0,73,0.00,,,0.00,Wunderground v.1.15,2013-05-01 02:55:00,
2013-04-30 23:00:00,59.3,51.0,30.17,SSE,155,1.0,1.0,74,0.00,,,0.00,Wunderground v.1.15,2013-05-01 03:00:00,
2013-04-30 23:05:00,59.3,51.0,30.17,SSE,156,1.0,9.0,74,0.00,,,0.00,Wunderground v.1.15,2013-05-01 03:05:00,
2013-04-30 23:10:00,59.3,51.0,30.17,SSE,168,2.0,2.0,74,0.00,,,0.00,Wunderground v.1.15,2013-05-01 03:10:00,
2013-04-30 23:20:00,59.2,50.9,30.17,SW,223,2.0,2.0,74,0.00,,,0.00,Wunderground v.1.15,2013-05-01 03:20:00,
2013-04-30 23:25:00,59.1,50.8,30.17,SE,126,2.0,9.0,74,0.00,,,0.00,Wunderground v.1.15,2013-05-01 03:25:00,
2013-04-30 23:30:00,58.9,51.0,30.18,SW,221,1.0,1.0,75,0.00,,,0.00,Wunderground v.1.15,2013-05-01 03:30:00,
2013-04-30 23:35:00,58.7,50.8,30.18,South,191,1.0,9.0,75,0.00,,,0.00,Wunderground v.1.15,2013-05-01 03:35:00,
2013-04-30 23:40:00,58.6,51.1,30.18,SSW,211,1.0,9.0,76,0.00,,,0.00,Wunderground v.1.15,2013-05-01 03:40:00,
2013-04-30 23:45:00,58.3,50.8,30.18,SSW,205,1.0,9.0,76,0.00,,,0.00,Wunderground v.1.15,2013-05-01 03:45:00,
2013-04-30 23:50:00,58.2,51.0,30.18,SSW,192,1.0,9.0,77,0.00,,,0.00,Wunderground v.1.15,2013-05-01 03:50:00,
2013-04-30 23:55:00,58.0,50.8,30.18,SE,124,1.0,9.0,77,0.00,,,0.00,Wunderground v.1.15,2013-05-01 03:55:00,